COSMOS 2251 DEB, 34797

Orbit data source: Space-Track

COSMOS 2251 DEB, 34797 is space debris in LEO originally from a launch on Wed, 16 Jun 1993 UTC launched from the Plesetsk Missile And Space Complex (PKMTR). The debris from Iridium 33, an American commercial communications satellite, has been tracked extensively since its accidental collision with the defunct Russian satellite Cosmos 2251 in 2009. This event, occurring at high speed in low Earth orbit (LEO), generated thousands of pieces of space debris, significantly increasing the risk of further collisions. The Iridium 33 debris cloud has impacted space traffic management and orbital debris mitigation strategies, making it a subject of ongoing study in space situational awareness.

Loading next visibility...
Identifier
34797, 1993-036ABA
Orbit
LEO
Country
Flag of CISCIS
Related business
Manufacturer
Unknown
Mission
Spacecraft
Bus & Motor
Unknown
Mass
Unknown
Launch date (UTC)
1993-06-16 (33 years ago)
Launch vehicle
Unknown
Launch site
Plesetsk Missile And Space Complex (PKMTR)
Object type
Payload
Rocket body
Debris
Shape & HBR
Unknown shape, 0.1 m
Radar Cross Section
Small (<0.1 m²)

Expand to show TLE details & history
Last TLE update: 23 hours ago

TLE from 23 hours ago
0 COSMOS 2251 DEB
1 34797U 93036ABA 26035.32378559  .00006328  00000-0  18233-2 0  9997
2 34797  73.9793   0.0921 0067912 101.1769 259.7032 14.43545197881886
Epoch: 2026-02-04T07:46Z
TLE epoch observation values (Epoch: 2026-02-04T07:46:15.074Z)
Latitude
-0.00005°
Longitude
109.03727°
Altitude
758.395 km
Speed
7.471 km/s
True Right ascension
00h 00m 22s
True Declination
0° 00' 00"
Sunlit
Object was in daylight at epoch
Visualization orbit readout
Latitude
Unknown
Longitude
Unknown
Altitude
Unknown
Speed
Unknown
Apparent Right ascension
Unknown
Apparent Declination
Unknown
Sunlit
N/A
Visualization observer readout
Local Sidereal Time
08:44:26
Azimuth
Unknown
Elevation
Unknown
Doppler factor
Unknown
Orbital elements
Apogee altitude
792.8 km
Perigee altitude
696.059 km
Semi-major axis
7,122.566 km
Eccentricity
0.00679
Inclination
73.9793°
RAAN
0.0921°
Arg. of periapsis
101.1769°
True anomaly
258.9387°
Mean anomaly
259.7032°
Eccentric anomaly
259.32083°
Mean motion
3.61068 °/min
Orbital period
99.7 mins
BSTAR
0.0018233
Loading maneuver chart data...
Computing Atmospheric mass density...

Documentation

Showing up to 5 results
|